Погода в Изборске

Россия / Псковская область     57°42′27″N   27°51′40″E
темп.,
°C
ветер,
м/с
пор.,
м/с
влажн.,
%
обл.,
%
осадки,
мм/ч
давл.,
гПа
погр.,
м
11 мая, вт
вт1100:00+12ю41479100 0.0 1023465
03:00+10ююв51484100 0.0 1023382
06:00+10ююв4128897 0.0 1023303
09:00+14ю51165100 0.0 1024490
12:00+19ююв5851100 0.0 1023962
15:00+21ююв574144 0.0 10231254
18:00+21ююв47495 0.0 10211198
21:00+15юв3117440 0.0 1021245
12 мая, ср
ср1200:00+11ююв311805 0.0 1022218
03:00+9ююв27830 0.0 1022140
06:00+9ююв39854 0.0 1022184
09:00+16ююв36665 0.0 1022378
12:00+21юв57560 0.0 10211110
15:00+23юв574757 0.0 10202124
18:00+19ююв376721 0.0 1019430
21:00+15вюв12810 0.0 101811
13 мая, чт
чт1300:00+13св22875 0.0 101722
03:00+14ссв288468 0.0 1014215
06:00+14вюв41189100 0.1 1013689
09:00+14юв69683 0.2 10131029
12:00+17юв6115175 0.0 10131909
15:00+18юв710418 0.0 10122255
18:00+16ююв5950100 0.0 10111678
21:00+12юв2472100 0.0 1011104
14 мая, пт
пт1400:00+9юв288522 0.0 1010196
03:00+7ююв27943 0.0 1011142
06:00+7юв39925 0.0 1010267
09:00+10вюв41082100 0.1 1010614
12:00+14юв61071100 0.2 1010849
15:00+13юв41078100 0.3 1010852
18:00+15юв597271 0.0 10091114
21:00+13вюв4108580 0.1 1008539
15 мая, сб
сб1500:00+10в279818 0.1 1007179
03:00+9юв229824 0.1 100743
06:00+10юв1299100 0.0 100655
09:00+14ююв2383100 0.0 1005391
12:00+19ююз1258100 0.0 10051229
15:00+18з237098 1.5 1005915
18:00+17з348132 2.0 1005592
21:00+13з2595100 2.8 1005137